Location: RyutenAO
(34.8939°N, 134.0022°E)
Time: 19:34:10
(UTC+09:00)

BlueWalker 3 - Pass Details

Date: 08 December 2022
Orbit: 499 x 517 km, 53.2° (Epoch: 01 February)

Event Time Altitude Azimuth Distance (km) Brightness Sun altitude
Rises 18:37:24 0° 325° (NW) 2,618 5.9 -20.9°
Reaches altitude 10° 18:39:56 10° 340° (NNW) 1,725 4.7 -21.4°
Enters shadow 18:40:58 15° 351° (N) 1,420 4.2 -21.7°
